TheGetRank SiteMap Page 2870
Home 2820 2821 2822 2823 2824 2825 2826 2827 2828 2829 2830 2831 2832 2833 2834 2835 2836 2837 2838 2839 2840 2841 2842 2843 2844 2845 2846 2847 2848 2849 2850 2851 2852 2853 2854 2855 2856 2857 2858 2859 2860 2861 2862 2863 2864 2865 2866 2867 2868 2869 2870 2871 2872 2873 2874 2875 2876 2877 2878 2879 2880 2881 2882 2883 2884 2885 2886 2887 2888 2889 2890 2891 2892 2893 2894 2895 2896 2897 2898 2899 2900 2901 2902 2903 2904 2905 2906 2907 2908 2909 2910 2911 2912 2913 2914 2915 2916 2917 2918 2919 2920
S.NO. Website Pagerank Alexa Rank Last Updated
2869000 absixpack.net 0 20129911 2011-09-28 19:25:41
2869001 andys-auto.com 0 No Rank 2011-09-28 19:25:47
2869002 firsteditionoriginals.com 0 5229804 2011-09-28 19:25:47
2869003 stanvest.pl 0 No Rank 2011-09-28 19:25:53
2869004 mountainbillboards.com 0 No Rank 2011-09-28 19:25:58
2869005 firstforms.com 0 17241027 2011-09-28 19:25:59
2869006 stanleychurch.org 0 No Rank 2011-09-28 19:26:09
2869007 evolvlatina.com 0 No Rank 2011-09-28 19:26:17
2869008 stcyrille.qc.ca 0 19405810 2011-09-28 19:26:24
2869009 stangson3.com 0 No Rank 2011-09-28 19:26:26
2869010 standrewsframma.org 0 8658137 2011-09-28 19:26:33
2869011 shyble.deviantart.com 0 130 2011-09-28 19:26:34
2869012 stalspeciald.nl 0 No Rank 2011-09-28 19:26:42
2869013 pbautowash.com 0 No Rank 2011-09-28 19:26:45
2869014 stairpart.com 0 9914755 2011-09-28 19:26:46
2869015 sarakbyrne.com 0 461177 2011-09-28 19:26:46
2869016 stahelifamilyfarm.com 0 18422361 2011-09-28 19:26:54
2869017 fishingboataccessories.info 0 No Rank 2011-09-28 19:26:55
2869018 fishtrap.ca 0 No Rank 2011-09-28 19:27:00
2869019 fitexcellence.com 0 6189963 2011-09-28 19:27:02
2869020 coolmathgamesbcubed554.tumblr.com 0 No Rank 2011-09-28 19:27:07
2869021 staggsracing.com 0 12182005 2011-09-28 19:27:09
2869022 fitnessbandsales.com 0 No Rank 2011-09-28 19:27:13
2869023 fitone-online.com 0 No Rank 2011-09-28 19:27:14
2869024 fivezerotwo.net 0 No Rank 2011-09-28 19:27:20
2869025 fitunafarming.se 0 No Rank 2011-09-28 19:27:22
2869026 fj-cruiser-accessories.com 0 No Rank 2011-09-28 19:27:26
2869027 stagescfs.be 0 No Rank 2011-09-28 19:27:28
2869028 rhythmsandfitness.com 0 6366260 2011-09-28 19:27:30
2869029 fjtech.us 0 1387847 2011-09-28 19:27:32
2869030 stadttheater-amberg.de 0 7569659 2011-09-28 19:27:35
2869031 best-consumer-finance.info 0 4919105 2011-09-28 19:27:35
2869032 sscrecruitment.hu 0 15790649 2011-09-28 19:27:38
2869033 fkphotography.ca 0 9050854 2011-09-28 19:27:43
2869034 brilynclassiccarhire.co.uk 0 No Rank 2011-09-28 19:27:43
2869035 121guitartuition.co.uk 0 No Rank 2011-09-28 19:27:43
2869036 ssa-us.com 0 8963767 2011-09-28 19:27:44
2869037 taxliencertificatesz.com 0 No Rank 2011-09-28 19:27:46
2869038 flagi-mira.ru 0 3482981 2011-09-28 19:27:50
2869039 flamigel.be 0 23491189 2011-09-28 19:27:51
2869040 lovingheartscarecenter.com 0 No Rank 2011-09-28 19:27:52
2869041 oceaninvites.com 0 No Rank 2011-09-28 19:27:56
2869042 srvnlaw.com 0 No Rank 2011-09-28 19:27:57
2869043 1000funnypictures.com 0 459979 2011-09-28 19:27:57
2869044 ss2racing.com 0 No Rank 2011-09-28 19:27:58
2869045 carboymotorsports.com 0 No Rank 2011-09-28 19:28:02
2869046 carpetcleaning-losangeles.com 0 No Rank 2011-09-28 19:28:03
2869047 arinyapark.com 0 No Rank 2011-09-28 19:28:04
2869048 flashgameheroes.com 0 108378 2011-09-28 19:28:06
2869049 srinyu.com 0 No Rank 2011-09-28 19:28:11
2869050 maleconpharmacy.com 0 No Rank 2011-09-28 19:28:13
2869051 sresistance.com 0 No Rank 2011-09-28 19:28:15
2869052 srhomeimprovement.com 0 No Rank 2011-09-28 19:28:17
2869053 xesguide.com 0 12472265 2011-09-28 19:28:19
2869054 sqlpal.com 0 23411551 2011-09-28 19:28:21
2869055 squirrel-stone.com 0 7189072 2011-09-28 19:28:22
2869056 johnsoninvestmentgroup.com 0 No Rank 2011-09-28 19:28:24
2869057 natnmarhah.blog.com 0 1085 2011-09-28 19:28:25
2869058 flatzfishing.com 0 No Rank 2011-09-28 19:28:31
2869059 realtyassociation.com 0 5159262 2011-09-28 19:28:34
2869060 sprinklerdoc.com 0 No Rank 2011-09-28 19:28:35
2869061 spotsandstripes.net 0 No Rank 2011-09-28 19:28:40
2869062 flavorwaveturbo.ru 0 5186432 2011-09-28 19:28:42
2869063 flexsalonconcept.com 0 7960775 2011-09-28 19:28:45
2869064 hybrid-pkers.forumotion.com 0 2440 2011-09-28 19:28:48
2869065 spotlightrecruiting.com 0 No Rank 2011-09-28 19:28:48
2869066 beumer90.yolasite.com 0 No Rank 2011-09-28 19:28:48
2869067 sportwebz.com 0 110341 2011-12-11 23:47:00
2869068 werygut.cu.cc 0 12969 2011-09-28 19:28:56
2869069 heavenly.us 0 No Rank 2011-09-28 19:28:57
2869070 sportskadekliniken.se 0 No Rank 2011-09-28 19:28:58
2869071 sportscallauburn.com 0 14485040 2011-09-28 19:28:59
2869072 sportingdog.gr 0 No Rank 2011-09-28 19:29:06
2869073 flexwriterscreativenetwork.net 0 2360392 2011-09-28 19:29:07
2869074 hempclothing.com 0 No Rank 2011-09-28 19:29:08
2869075 sportechracing.com 0 No Rank 2011-09-28 19:29:12
2869076 flomdesigns.com 0 22481797 2011-09-28 19:29:13
2869077 jamiechase120.livejournal.com 0 87 2011-09-28 19:29:14
2869078 3v07advertising.com 0 9773888 2011-09-28 19:29:18
2869079 floridabroadacre.com 0 No Rank 2011-09-28 19:29:20
2869080 floorstothetrade.com 0 20939825 2011-09-28 19:29:20
2869081 seonesa.blogspot.com 0 No Rank 2011-09-28 19:29:21
2869082 beumer90.insanejournal.com 0 5024 2011-09-28 19:29:22
2869083 enfinitystudios.com 0 No Rank 2011-09-28 19:29:23
2869084 sportcentrum-slovacka.cz 0 19327488 2011-09-28 19:29:26
2869085 spokanecardiology.com 0 6017427 2011-09-28 19:29:31
2869086 spokosenior.pl 0 21683975 2011-09-28 19:29:33
2869087 splendido.pl 0 9261557 2011-09-28 19:29:37
2869088 splashlightportfolio.com 0 No Rank 2011-09-28 19:29:40
2869089 floridakeysflats.com 0 No Rank 2011-09-28 19:29:43
2869090 floridalawncare.org 0 9583428 2011-09-28 19:29:48
2869091 spiritclubcorp.com 0 No Rank 2011-09-28 19:29:49
2869092 spinarealty.com 0 14351997 2011-09-28 19:29:56
2869093 spie-jisce.org 0 No Rank 2011-09-28 19:30:08
2869094 devotion-graphics.com 0 6428863 2011-09-28 19:30:08
2869095 spf.fpn.bg.ac.rs 0 48613 2011-09-28 19:30:13
2869096 floridastripp.com 0 No Rank 2011-09-28 19:30:17
2869097 stickypaws.co.uk 0 No Rank 2011-09-28 19:30:17
2869098 lillyinktattoo.com 0 No Rank 2011-09-28 19:30:20
2869099 flowcontrolequip.com 0 No Rank 2011-09-28 19:30:23
2869100 flower-spirit.com 0 No Rank 2011-09-28 19:30:25
2869101 poetryinflowers.com 0 28623169 2011-09-28 19:30:25
2869102 spermapussy.de.tc 0 137581 2011-09-28 19:30:30
2869103 speedtriple-challenge.com 0 15005416 2011-09-28 19:30:31
2869104 northwesternexteriors.com 0 No Rank 2011-09-28 19:30:37
2869105 speedstyleandperformance.com 0 No Rank 2011-09-28 19:30:37
2869106 kingscaterers.com 0 No Rank 2011-09-28 19:30:38
2869107 beumer90.hubpages.com 0 312 2011-09-28 19:30:39
2869108 spedition-kremer.de 0 18853255 2011-09-28 19:30:45
2869109 floweradvisor.com.ph 0 5921751 2011-09-28 19:30:47
2869110 piccolonido.com 0 13860516 2011-09-28 19:30:48
2869111 spectrumcareer.com 0 No Rank 2011-09-28 19:30:52
2869112 specialks.org 0 No Rank 2011-09-28 19:30:58
2869113 specializedadventure.co.za 0 No Rank 2011-09-28 19:30:59
2869114 mercury.co.in 0 930266 2011-09-28 19:31:01
2869115 yeunu.freebloggersworld.com 0 17996283 2011-09-28 19:31:04
2869116 fluid-equipment.com 0 No Rank 2011-09-28 19:31:08
2869117 jdcbaseball.org 0 No Rank 2011-09-28 19:31:11
2869118 floydrealtync.com 0 No Rank 2011-09-28 19:31:13
2869119 fluxthruster.com 0 6473051 2011-09-28 19:31:14
2869120 jamiechase120.insanejournal.com 0 5024 2011-09-28 19:31:15
2869121 globalinvestoralerts.com 0 812213 2011-09-28 19:31:16
2869122 speak-asia.com 0 12995577 2011-09-28 19:31:18
2869123 specelservis.ru 0 933927 2011-09-28 19:31:20
2869124 basketball-court-dimensions.com 0 No Rank 2011-09-28 19:31:22
2869125 customseedpacks.com 0 5995384 2011-09-28 19:31:22
2869126 blog.yperochi.com 0 1346843 2011-09-28 19:31:23
2869127 floridasbestmartialarts.com 0 6981761 2011-09-28 19:31:24
2869128 flyingincircle.com 0 No Rank 2011-09-28 19:31:24
2869129 flyinwillierecords.com 0 No Rank 2011-09-28 19:31:29
2869130 sparktheevent.com 0 960598 2011-09-28 19:31:29
2869131 sparkbrs.com 0 4410467 2011-09-28 19:31:37
2869132 sushijoyboise.com 0 20059115 2011-09-28 19:31:40
2869133 greatnecklocksmith.info 0 12603757 2011-09-28 19:31:40
2869134 spa-lonsalon.com 0 No Rank 2011-09-28 19:31:41
2869135 adamsgraham.com 0 No Rank 2011-09-28 19:31:43
2869136 sp162lodz.fm.interia.pl 0 710 2011-09-28 19:31:45
2869137 soyouwanttowrite.com 0 2460930 2011-09-28 19:31:52
2869138 sowa-s.jp 0 8462655 2011-09-28 19:31:53
2869139 nianticlegion128.org 0 11403351 2011-09-28 19:31:58
2869140 southwestnova.com 0 No Rank 2011-09-28 19:31:59
2869141 fm.projektas.lt 0 367004 2011-09-28 19:32:02
2869142 southsunrise.com 0 No Rank 2011-09-28 19:32:09
2869143 beumer90.livejournal.com 0 87 2011-09-28 19:32:10
2869144 southpointeventures.com 0 4609597 2011-09-28 19:32:12
2869145 southpacificvacationguide.com 0 8815384 2011-09-28 19:32:17
2869146 southlakecomputers.com 0 18750328 2011-09-28 19:32:19
2869147 southjerseycarinsurance.org 0 No Rank 2011-09-28 19:32:23
2869148 southernairco.com 0 No Rank 2011-09-28 19:32:34
2869149 southeastfootballleague.com 0 10047354 2011-09-28 19:32:41
2869150 sousaesantos.com 0 No Rank 2011-09-28 19:32:49
2869151 fnonline2.tk 0 No Rank 2011-09-28 19:32:51
2869152 soundtel.com 0 11958556 2011-09-28 19:32:58
2869153 soundshow.pl 0 3856412 2011-09-28 19:33:03
2869154 soundsdigital.com 0 No Rank 2011-09-28 19:33:04
2869155 soulshineranch.com 0 No Rank 2011-09-28 19:33:10
2869156 focusindy.com 0 No Rank 2011-09-28 19:33:18
2869157 foglightgames.com 0 No Rank 2011-09-28 19:33:18
2869158 sotontaxi.com 0 13873195 2011-09-28 19:33:26
2869159 fojministries.net 0 No Rank 2011-09-28 19:33:27
2869160 soswindowsfr.free.fr 0 207 2011-09-28 19:33:32
2869161 folianti.com 0 No Rank 2011-09-28 19:33:35
2869162 ionizertalk.com 0 17973926 2011-09-28 19:33:36
2869163 folkswagon.com 0 No Rank 2011-09-28 19:33:41
2869164 niceits.cu.cc 0 12969 2011-09-28 19:33:47
2869165 fombellhistory.org 0 No Rank 2011-09-28 19:33:48
2869166 fondationcanadiennedesjeunesentrepreneurs.com 0 No Rank 2011-09-28 19:33:51
2869167 soren-k.dk 0 No Rank 2011-09-28 19:33:56
2869168 soraelee.com 0 No Rank 2011-09-28 19:33:59
2869169 fondazionemoschino.it 0 No Rank 2011-09-28 19:34:04
2869170 sonyel.com 0 No Rank 2011-09-28 19:34:07
2869171 sonicraft.com 0 23410754 2011-09-28 19:34:13
2869172 sonjageiger.de 0 24457094 2011-09-28 19:34:15
2869173 song-secrets.com 0 10596141 2011-09-28 19:34:23
2869174 sonbuddhism.org 0 15312959 2011-09-28 19:34:30
2869175 foodcityny.com 0 7056690 2011-09-28 19:34:36
2869176 im404.com 0 7396663 2011-11-13 16:34:06
2869177 foodjustsayin.com 0 2484667 2011-09-28 19:34:49
2869178 songanhtb.net 0 27984381 2011-09-28 19:34:49
2869179 foodlasso.com 0 No Rank 2011-09-28 19:34:56
2869180 foodnet.hu 0 27616509 2011-09-28 19:34:58
2869181 footballjerseysonline.net 0 No Rank 2011-09-28 19:35:04
2869182 sommerhusudlejning-tyskland.novasol.dk 0 291991 2011-09-28 19:35:07
2869183 somethingandnothing.org 0 No Rank 2011-09-28 19:35:16
2869184 foothillsfeattriathlon.com 0 No Rank 2011-09-28 19:35:18
2869185 somersetlutheran.org 0 18233926 2011-09-28 19:35:28
2869186 somervillecleaning.com 0 No Rank 2011-09-28 19:35:32
2869187 somalinationalparty.org 0 No Rank 2011-09-28 19:35:34
2869188 beumer90.webs.com 0 No Rank 2011-09-28 19:35:38
2869189 solutionzinc.com 0 1958120 2011-09-28 19:35:40
2869190 solustherapy.com 0 No Rank 2011-09-28 19:35:43
2869191 rmddesigns.com 0 No Rank 2011-09-28 19:35:43
2869192 jamiechase120.bravejournal.com 0 13316 2011-09-28 19:35:48
2869193 solomonsmosaic.org 0 28019390 2011-09-28 19:35:49
2869194 soltrujillo.com 0 2146027 2011-09-28 19:35:49
2869195 tbcmassage.com 0 No Rank 2011-09-28 19:35:54
2869196 solidworksdesigns.com 0 No Rank 2011-09-28 19:35:58
2869197 solidstoneconcrete.com 0 No Rank 2011-09-28 19:35:58
2869198 pornpub.in 0 3517083 2011-09-28 19:36:00
2869199 footlockersurvey.com 0 2930551 2011-11-05 04:19:26
2869200 solidplumbing.com 0 20000153 2011-09-28 19:36:05
2869201 solfirma.com 0 No Rank 2011-09-28 19:36:11
2869202 beumer90.xanga.com 0 2752 2011-09-28 19:36:14
2869203 solfesten.com 0 No Rank 2011-09-28 19:36:21
2869204 forbze.com 0 12689789 2011-09-28 19:36:22
2869205 konya.net.tr 0 1740377 2011-09-28 19:36:25
2869206 soledadhouse.com 0 No Rank 2011-09-28 19:36:28
2869207 soldiersoffthestreet.com 0 11426557 2011-09-28 19:36:29
2869208 solarpolska.com.pl 0 2051736 2011-09-28 19:36:36
2869209 sol-thermal.com 0 No Rank 2011-09-28 19:36:41
2869210 stampederecords.com 0 No Rank 2011-09-28 19:36:44
2869211 soireeannees80.be 0 No Rank 2011-09-28 19:36:49
2869212 sogoodentertainment.net 0 No Rank 2011-09-28 19:36:53
2869213 softuse.ru 0 753980 2011-09-28 19:37:02
2869214 softwaresavvy.us 0 No Rank 2011-09-28 19:37:05
2869215 fordonlyparts.com 0 16108468 2011-09-28 19:37:10
2869216 softtouchny.com 0 18698784 2011-09-28 19:37:12
2869217 lazycashability.com 0 No Rank 2011-09-28 19:37:12
2869218 foreignexchangetradings.com 0 No Rank 2011-09-28 19:37:16
2869219 evansemedia.com 0 No Rank 2011-09-28 19:37:18
2869220 fores-water.com 0 No Rank 2011-09-28 19:37:21
2869221 forex-brokerage-firms.info 0 13856944 2011-09-28 19:37:23
2869222 sofaforasamurai.com 0 No Rank 2011-09-28 19:37:25
2869223 soel.org.ua 0 7315232 2011-09-28 19:37:31
2869224 societyfortheproliferationofvisceralrealism.com 0 No Rank 2011-09-28 19:37:33
2869225 socialwork.sg 0 24493547 2011-09-28 19:37:38
2869226 forjaescala.com 0 No Rank 2011-09-28 19:37:39
2869227 youthmartialartsbradenton.com 0 No Rank 2011-09-28 19:37:39
2869228 forkliftbatteriesandchargers.com 0 20199185 2011-09-28 19:37:44
2869229 socialstudiesandhistoryteachersblog.com 0 No Rank 2011-09-28 19:37:48
2869230 socialmedium.net 0 No Rank 2011-09-28 19:37:49
2869231 formerrevdrdavidgberry.com 0 No Rank 2011-09-28 19:37:55
2869232 kidsmartialartsbradenton.com 0 No Rank 2011-09-28 19:37:57
2869233 pevadpi.cp.cx 0 194305 2011-09-28 19:37:58
2869234 socalviper.com 0 7486170 2011-09-28 19:38:04
2869235 clearancerunningshoes.info 0 No Rank 2011-09-28 19:38:05
2869236 socalandscape.com 0 18428613 2011-09-28 19:38:09
2869237 diamondringssale.info 0 No Rank 2011-09-28 19:38:12
2869238 beumer90.wetpaint.com 0 2601 2011-09-28 19:38:13
2869239 sobored.net 0 6205308 2011-09-28 19:38:13
2869240 howpopularisivfinfertilitytreatment.blogspot.com 0 No Rank 2011-09-28 19:38:15
2869241 snsphoto.net 0 No Rank 2011-09-28 19:38:17
2869242 plano-de-saude.info 0 No Rank 2011-09-28 19:38:19
2869243 fortbraggbakery.com 0 No Rank 2011-09-28 19:38:20
2869244 aidscareindia.com 0 4054955 2011-09-28 19:38:21
2869245 fortenberrylaw.net 0 No Rank 2011-09-28 19:38:30
2869246 fortwayneyouthhockey.com 0 No Rank 2011-09-28 19:38:34
2869247 snohobrewing.com 0 No Rank 2011-09-28 19:38:41
2869248 snoozingdragon.com 0 28216981 2011-09-28 19:38:41
2869249 snj-innovation.com 0 No Rank 2011-09-28 19:38:50
2869250 sncf-grandvoyageur.com 0 No Rank 2011-09-28 19:38:54
2869251 snake-avoidance.com 0 15053307 2011-09-28 19:39:00
2869252 snaily.ch 0 No Rank 2011-09-28 19:39:01
2869253 forum-normandie.fr 0 No Rank 2011-09-28 19:39:10
2869254 youthmartialartssarasota.com 0 14863777 2011-09-28 19:39:15
2869255 forum.eakwarystyka.eu 0 1152091 2011-09-28 19:39:16
2869256 smyrnahistory.org 0 9837224 2011-09-28 19:39:18
2869257 smsforexsignals.com 0 22345391 2011-09-28 19:39:24
2869258 perfectneed.com 0 1970380 2011-09-28 19:39:27
2869259 kidsmartialartssarasota.com 0 No Rank 2011-09-28 19:39:32
2869260 fosterjonesfurnishings.com 0 No Rank 2011-09-28 19:39:33
2869261 sms-gratis.org 0 No Rank 2011-09-28 19:39:38
2869262 pittsfordrestaurants.350.com 0 46092 2011-09-28 19:39:39
2869263 forumvirus.com 0 1471390 2011-09-28 19:39:39
2869264 smp-software.de 0 19486435 2011-09-28 19:39:44
2869265 goreddysretreat.com 0 No Rank 2011-09-28 19:39:47
2869266 rsisoftech.co.uk 0 15881769 2011-09-28 19:39:49
2869267 fotbal-sumperk.cz 0 No Rank 2011-09-28 19:39:50
2869268 smmtruck.com 0 No Rank 2011-09-28 19:39:50
2869269 foto2000.pt 0 No Rank 2011-09-28 19:39:57
2869270 smithtownmoms.com 0 No Rank 2011-09-28 19:40:03
2869271 smithsonphoto.com 0 No Rank 2011-09-28 19:40:04
2869272 zaidimai.web44.net 0 36785 2011-09-28 19:40:07
2869273 womacklaw.lawoffice.com 0 562506 2011-09-28 19:40:11
2869274 smilelifting.com 0 No Rank 2011-09-28 19:40:14
2869275 beumer90.terapad.com 0 12041 2011-09-28 19:40:15
2869276 cosmoza.com 0 No Rank 2011-09-28 19:40:16
2869277 smiledental-implantcenter.com 0 No Rank 2011-09-28 19:40:21
2869278 smithlandscaping.net 0 No Rank 2011-09-28 19:40:21
2869279 smatlab.com 0 11074933 2011-09-28 19:40:28
2869280 smartwhale.com 0 No Rank 2011-09-28 19:40:33
2869281 greatlakessireservice.com 0 No Rank 2011-09-28 19:40:42
2869282 flamengorj.com.br 0 151819 2011-09-28 19:40:44
2869283 project-exit.com 0 No Rank 2011-09-28 19:40:45
2869284 smartwelder.com 0 No Rank 2011-09-28 19:40:45
2869285 bfmc15.com 0 No Rank 2011-09-28 19:40:46
2869286 7gouwu.net 0 8137807 2011-09-28 19:40:48
2869287 coppercountrymall.com 0 No Rank 2011-09-28 19:40:50
2869288 dvictoriabelize.com 0 5282528 2011-09-28 19:40:50
2869289 smartrx.biz 0 No Rank 2011-09-28 19:40:56
2869290 bellevueheart.com 0 No Rank 2011-09-28 19:40:59
2869291 kindscotland.org 0 No Rank 2011-09-28 19:40:59
2869292 rbpfx.com 0 No Rank 2011-09-28 19:40:59
2869293 sammessina.com 0 11602729 2011-09-28 19:41:00
2869294 baymaregroup.com 0 No Rank 2011-09-28 19:41:01
2869295 food-fairies.co.uk 0 No Rank 2011-09-28 19:41:01
2869296 chelsvigelectric.com 0 No Rank 2011-09-28 19:41:02
2869297 beumer90.hpage.co.in 0 94437 2011-09-28 19:41:03
2869298 mediasol.com.ar 0 No Rank 2011-09-28 19:41:03
2869299 dustbusterscapecod.com 0 No Rank 2011-09-28 19:41:04
2869300 ghost-lights.org 0 14890551 2011-09-28 19:41:04
2869301 alokvidyashram.edu.np 0 No Rank 2011-09-28 19:41:06
2869302 jkswa.com 0 5527069 2011-09-28 19:41:07
2869303 buckfieldmainehomes.com 0 No Rank 2011-09-28 19:41:08
2869304 ebook-templates.com 0 3060072 2011-09-28 19:41:08
2869305 myfreedatingcoach.com 0 854315 2011-09-28 19:41:09
2869306 smartplanet.net.tc 0 No Rank 2011-09-28 19:41:10
2869307 smartguitars.com 0 No Rank 2011-09-28 19:41:16
2869308 spikesantee.com 0 6010536 2011-09-28 19:41:19
2869309 earnmoneythroughtheinternet.net 0 19268621 2011-09-28 19:41:20
2869310 alanashirley.com 0 No Rank 2011-09-28 19:41:21
2869311 china-plasticproduct.com 0 No Rank 2011-09-28 19:41:21
2869312 kaliberstables.com 0 No Rank 2011-09-28 19:41:22
2869313 krisrae.com 0 8505786 2011-09-28 19:41:22
2869314 costamesamomsclub.org 0 18972571 2011-09-28 19:41:23
2869315 just-n-examiner.livejournal.com 0 87 2011-09-28 19:41:24
2869316 triangleareaproperties.com 0 24163170 2011-09-28 19:41:24
2869317 dusl.rb-ufa.ru 0 10777529 2011-09-28 19:41:24
2869318 solutionsunplugged.com 0 No Rank 2011-09-28 19:41:25
2869319 veryvero.com 0 No Rank 2011-09-28 19:41:26
2869320 rmsmedicalproducts.com 0 4049538 2011-09-28 19:41:26
2869321 fotoabc.de 0 3116061 2011-09-28 19:41:26
2869322 isproc.com 0 No Rank 2011-09-28 19:41:27
2869323 greatrides.org 0 No Rank 2011-09-28 19:41:27
2869324 beumer90.blogspot.com 0 No Rank 2011-09-28 19:41:27
2869325 amsecurityllc.com 0 No Rank 2011-09-28 19:41:32
2869326 theartistssoulmate.com 0 No Rank 2011-09-28 19:41:36
2869327 smartgreenbusiness.com 0 No Rank 2011-09-28 19:41:39
2869328 smallscalereptilerescue.org 0 No Rank 2011-09-28 19:41:44
2869329 smallpaws.ca 0 6012091 2011-09-28 19:41:49
2869330 fotografal.hu 0 No Rank 2011-09-28 19:41:58
2869331 smalldogcollar.org 0 No Rank 2011-09-28 19:42:08
2869332 youthmartialartslakewoodranch.com 0 No Rank 2011-09-28 19:42:09
2869333 fotografia.net.pl 0 6942817 2011-09-28 19:42:24
2869334 kidsmartialartslakewoodranch.com 0 No Rank 2011-09-28 19:42:26
2869335 smeadfunds.com 0 No Rank 2011-09-28 19:42:27
2869336 smackwatermusic.com 0 616153 2011-09-28 19:42:32
2869337 beumer90.wordpress.com 0 No Rank 2011-09-28 19:42:41
2869338 sm-arc.com 0 No Rank 2011-09-28 19:42:41
2869339 slmaslough.org 0 No Rank 2011-09-28 19:42:47
2869340 5yshopping.com 0 13604040 2011-09-28 19:42:56
2869341 sljournal.uaeu.ac.ae 0 58891 2011-09-28 19:42:56
2869342 5twoconnect.com 0 No Rank 2011-09-28 19:43:02
2869343 sleeptightblankets.com 0 No Rank 2011-09-28 19:43:03
2869344 smale.net 0 No Rank 2011-09-28 19:43:05
2869345 fotografikigonia.com 0 No Rank 2011-09-28 19:43:14
2869346 stda.es 0 3755676 2011-09-28 19:43:20
2869347 jones-healy.com 0 3012355 2011-09-28 19:43:20
2869348 zoe-christiancenter.org 0 No Rank 2011-09-28 19:43:21
2869349 swimwa.tv 0 No Rank 2011-09-28 19:43:21
2869350 bethtumer90.blog.com 0 1085 2011-09-28 19:43:24
2869351 bradentonbrazilianjiujitsu.com 0 No Rank 2011-09-28 19:43:30
2869352 wsjr.yperochi.com 0 1346843 2011-09-28 19:43:33
2869353 buycheapmetronidazole.com 0 No Rank 2011-09-28 19:43:36
2869354 2.dobre-materace.com 0 19304833 2011-09-28 19:43:44
2869355 supremesilk.com 0 No Rank 2011-09-28 19:43:44
2869356 coredog.joeuser.com 0 243787 2011-09-28 19:43:47
2869357 bluediamondva.com 0 2560909 2011-09-28 19:43:48
2869358 thekatsmeow92.xanga.com 0 2752 2011-09-28 19:43:51
2869359 tamimah.com 0 No Rank 2011-09-28 19:43:52
2869360 pighut.com 0 No Rank 2011-09-28 19:43:55
2869361 wyng949.com 0 No Rank 2011-09-28 19:43:58
2869362 beumer90.myblogsite.com 0 No Rank 2011-09-28 19:44:02
2869363 spb.can-zaman.com 0 No Rank 2011-09-28 19:44:06
2869364 irememberbetterwhenipaint.wordpress.com 0 20718908 2011-09-28 19:44:08
2869365 noahsilva1026.insanejournal.com 0 5024 2011-09-28 19:44:09
2869366 famus.russerialy.ru 0 2690314 2011-09-28 19:44:10
2869367 tolstovka5680sz.chat.ru 0 24281 2011-09-28 19:44:15
2869368 sleepnorthwest.com 0 No Rank 2011-09-28 19:44:18
2869369 contactus.yperochi.com 0 1346843 2011-09-28 19:44:19
2869370 oefoif.forumotion.net 0 7291 2011-09-28 19:44:27
2869371 beumer90.webnode.com 0 2992 2011-09-28 19:44:40
2869372 slamilyreunion.com 0 No Rank 2011-09-28 19:44:43
2869373 withoutyou-x33.xanga.com 0 2752 2011-09-28 19:44:44
2869374 frontrangehondausedcars.com 0 12112231 2011-09-28 19:44:45
2869375 maps.484.yourkwoffice.com 0 110158 2011-09-28 19:44:50
2869376 sleepawaycampseries.tk 0 No Rank 2011-09-28 19:44:50
2869377 fountainfood.ru 0 No Rank 2011-09-28 19:44:53
2869378 sarasotabrazilianjiujitsu.com 0 No Rank 2011-09-28 19:44:57
2869379 fourseasons8010.com 0 No Rank 2011-09-28 19:44:59
2869380 skytriwebsolutions.biz 0 6334820 2011-09-28 19:45:06
2869381 beumer90.jimdo.com 0 585 2011-09-28 19:45:09
2869382 foyerdescreusets.ch 0 13481904 2011-09-28 19:45:10
2869383 fpclmedia.com 0 No Rank 2011-09-28 19:45:12
2869384 srqbjj.com 0 No Rank 2011-09-28 19:45:16
2869385 uclickhere.com 0 No Rank 2011-09-28 19:45:16
2869386 fpcoatings.biz 0 22818086 2011-09-28 19:45:17
2869387 fernandezelvin.wordpress.com 0 No Rank 2011-09-28 19:45:20
2869388 skuterypeugeot.forumex.pl 0 644126 2011-09-28 19:45:26
2869389 sklepydzieciece.pl 0 No Rank 2011-09-28 19:45:29
2869390 sklep.wedan.com.pl 0 5096472 2011-09-28 19:45:35
2869391 clubtanningtempe.com 0 No Rank 2011-09-28 19:45:40
2869392 skintagremovalathome.net 0 20444821 2011-09-28 19:45:40
2869393 customconsoles.net 0 12792151 2011-09-28 19:45:41
2869394 skinnymagic.net 0 18587626 2011-09-28 19:45:42
2869395 henrypqparker.posterous.com 0 No Rank 2011-09-28 19:45:44
2869396 maps.flyagogonet.andrinda.net 0 2717518 2011-09-28 19:45:45
2869397 skincareauthority.com 0 10068189 2011-09-28 19:45:47
2869398 kidsafecommunities.com 0 No Rank 2011-09-28 19:45:47
2869399 skating.lv 0 No Rank 2011-09-28 19:45:49
2869400 beautyfromheadtotour.webs.com 0 9574153 2011-09-28 19:45:52
2869401 beumer90.weebly.com 0 No Rank 2011-09-28 19:45:54
2869402 skaretskonsthall.se 0 No Rank 2011-09-28 19:45:57
2869403 ultimate-autosports.ebizautos.com 0 35139 2011-09-28 19:45:58
2869404 zashowbiz.ru 0 No Rank 2011-09-28 19:46:04
2869405 sjzytq.com 0 No Rank 2011-09-28 19:46:05
2869406 sjph.net.sd 0 1766771 2011-09-28 19:46:05
2869407 sixteenone.com 0 No Rank 2011-09-28 19:46:12
2869408 sjhoopscamps.com 0 No Rank 2011-09-28 19:46:14
2869409 sita.drobakhundehotell.no 0 5723409 2011-09-28 19:46:18
2869410 theambulance.com 0 No Rank 2011-09-28 19:46:19
2869411 sistemaurbano.net.tc 0 No Rank 2011-09-28 19:46:21
2869412 lakewoodranchbrazilianjiujitsu.com 0 No Rank 2011-09-28 19:46:25
2869413 sirpizzamadison.com 0 No Rank 2011-09-28 19:46:29
2869414 thecookiebasket.net 0 No Rank 2011-09-28 19:46:33
2869415 sirios.com 0 No Rank 2011-09-28 19:46:34
2869416 beumer90.tumblr.com 0 No Rank 2011-09-28 19:46:37
2869417 ebwhite.net 0 No Rank 2011-09-28 19:46:38
2869418 sipet.net 0 10349560 2011-09-28 19:46:38
2869419 web8.vqc.pl 0 No Rank 2011-09-28 19:46:39
2869420 sinkorswimsportsbetting.com 0 4620352 2011-09-28 19:46:41
2869421 singlesexylol.se.tc 0 3696678 2011-09-28 19:46:55
2869422 singinghands.com 0 No Rank 2011-09-28 19:47:00
2869423 hoggerscustoms.com 0 No Rank 2011-09-28 19:47:00
2869424 sirskipper.com 0 No Rank 2011-09-28 19:47:05
2869425 kesha-sebert.com 0 No Rank 2011-09-28 19:47:07
2869426 saintmichaelhighpoint.com 0 No Rank 2011-09-28 19:47:11
2869427 revolutiongamestoday.com 0 21340548 2011-09-28 19:47:11
2869428 maskdrumcorps.org 0 No Rank 2011-09-28 19:47:11
2869429 lfa.ag 0 No Rank 2011-09-28 19:47:12
2869430 gymfinder.com 0 15776724 2011-09-28 19:47:12
2869431 foco-runner.andrinda.net 0 2717518 2011-09-28 19:47:14
2869432 67892111.com 0 8417452 2011-09-28 19:47:15
2869433 ultimatefsboprogram.com 0 No Rank 2011-09-28 19:47:21
2869434 oboguev.livejournal.com 0 87 2011-09-28 19:47:21
2869435 rainbowadvertising.com 0 No Rank 2011-09-28 19:47:21
2869436 alphaleonis.com 0 No Rank 2011-09-28 19:47:22
2869437 findwaterproofmp3player.com 0 No Rank 2011-09-28 19:47:26
2869438 k4ore.net 0 No Rank 2011-09-28 19:47:27
2869439 sinasoft.org 0 2356971 2011-09-28 19:47:33
2869440 addmore.com 0 2136419 2011-09-28 19:47:37
2869441 simplyprofound.com 0 No Rank 2011-09-28 19:47:39
2869442 tomorrowvision.tv 0 11001352 2011-09-28 19:47:41
2869443 simlapalcoe.org 0 No Rank 2011-09-28 19:47:45
2869444 beavertonblaze.com 0 No Rank 2011-09-28 19:47:52
2869445 similibis.com 0 2712401 2011-09-28 19:47:52
2869446 quinceatthemayfair.com 0 No Rank 2011-09-28 19:47:52
2869447 quailrunhollow.com 0 No Rank 2011-09-28 19:47:52
2869448 lesa.com.cn 0 No Rank 2011-09-28 19:47:54
2869449 bar1969.com 0 5414411 2011-09-28 19:48:00
2869450 barandgrillsheffield.co.uk 0 24271280 2011-09-28 19:48:31
2869451 courtesytoyotaofwinterpark.com 0 9530388 2011-09-28 19:48:35
2869452 weather.yperochi.com 0 1346843 2011-09-28 19:48:41
2869453 rigolebeton.info 0 No Rank 2011-09-28 19:48:45
2869454 silvenskavillan.se 0 No Rank 2011-09-28 19:48:46
2869455 afgelocal1869.org 0 22861374 2011-09-28 19:48:48
2869456 elektrovaneyken.be 0 No Rank 2011-09-28 19:48:51
2869457 silvcom.net 0 No Rank 2011-09-28 19:48:52
2869458 silusswgr.com 0 No Rank 2011-09-28 19:48:58
2869459 bestbonusfeatures.com 0 No Rank 2011-09-28 19:49:05
2869460 silban.eu 0 6625018 2011-09-28 19:49:06
2869461 give-video.webs.com 0 No Rank 2011-09-28 19:49:10
2869462 timcoopersphotocircle.com 0 7038440 2011-09-28 19:49:11
2869463 signaturesongs.com 0 24326704 2011-09-28 19:49:11
2869464 bestcamera.iblog365.com 0 97254 2011-09-28 19:49:13
2869465 homeloansokc.com 0 No Rank 2011-09-28 19:49:14
2869466 sigmaaero.com 0 13430552 2011-09-28 19:49:18
2869467 travelwhen.blogspot.com 0 No Rank 2011-09-28 19:49:21
2869468 panasonic-ag-dvx100b-camcorder.blogspot.com 0 No Rank 2011-09-28 19:49:23
2869469 cibersexogratis.com 0 5534155 2011-09-28 19:49:24
2869470 acumo.se 0 No Rank 2011-09-28 19:49:29
2869471 ineeddatahelp.net 0 No Rank 2011-09-28 19:49:32
2869472 asialw.com 0 No Rank 2011-09-28 19:49:37
2869473 verylw.com 0 5814588 2011-09-28 19:49:41
2869474 chadykhalife.net 0 27543540 2011-09-28 19:49:44
2869475 beumer90.blogdrive.com 0 8422 2011-09-28 19:49:47
2869476 glwzd.com 0 No Rank 2011-09-28 19:49:49
2869477 sidna-khutbas.tk 0 No Rank 2011-09-28 19:49:51
2869478 lwinfo.info 0 15187946 2011-09-28 19:49:51
2869479 ansarient.com 0 No Rank 2011-09-28 19:49:56
2869480 vbox.mozdev.org 0 4749 2011-09-28 19:49:56
2869481 bbnfp.co.uk 0 No Rank 2011-09-28 19:50:01
2869482 siamsuper.com 0 3120172 2011-09-28 19:50:02
2869483 durecorp.com 0 No Rank 2011-09-28 19:50:03
2869484 wakalab.com 0 17735555 2011-09-28 19:50:09
2869485 siammaxnet.com 0 No Rank 2011-09-28 19:50:12
2869486 usgbc-wbac.org 0 No Rank 2011-09-28 19:50:14
2869487 shtrih-center.ru 0 584039 2011-09-28 19:50:19
2869488 hamrahtv.com 0 No Rank 2011-09-28 19:50:21
2869489 69059.zcwz.com 0 75467 2011-09-28 19:50:24
2869490 shreebalajitravels.com 0 14337601 2011-09-28 19:50:26
2869491 waterdamagerescue.com 0 No Rank 2011-09-28 19:50:29
2869492 showcasedirectfurn.com 0 No Rank 2011-09-28 19:50:34
2869493 dir.yperochi.com 0 1346843 2011-09-28 19:50:38
2869494 mofidnet.com 0 7276000 2011-09-28 19:50:38
2869495 ni24.com 0 No Rank 2011-09-28 19:50:39
2869496 shoppy.org 0 No Rank 2011-09-28 19:50:41
2869497 b4ninety.com 0 8213383 2011-09-28 19:50:42
2869498 azmobileautomotive.com 0 No Rank 2011-09-28 19:50:52
2869499 vicfallsconnection.com 0 1204446 2011-09-28 19:50:56
2869500 shoplaststop.com 0 No Rank 2011-09-28 19:50:59
2869501 shopbrownsfurniture.com 0 16940517 2011-09-28 19:51:07
2869502 shop57.com 0 No Rank 2011-09-28 19:51:12
2869503 elistcanada.ca 0 No Rank 2011-09-28 19:51:18
2869504 blogdepoker.es 0 4452752 2011-09-28 19:51:18
2869505 shop4fun.se 0 No Rank 2011-09-28 19:51:20
2869506 shop.sebofashion.ee 0 No Rank 2011-09-28 19:51:30
2869507 viewphotos.org 0 248430 2011-09-28 19:51:33
2869508 www2.expres.ua 0 143356 2011-09-28 19:51:34
2869509 arabefacil.com 0 No Rank 2011-09-28 19:51:35
2869510 tuliptreecollection.com 0 No Rank 2011-09-28 19:51:36
2869511 shop.mikalamortensen.dk 0 26290170 2011-09-28 19:51:37
2869512 taklimna.at.corky.net 0 352734 2011-09-28 19:51:37
2869513 haphalloran.com 0 No Rank 2011-09-28 19:51:37
2869514 euribor025.com 0 No Rank 2011-09-28 19:51:41
2869515 shofiorskikursove-varna.com 0 No Rank 2011-09-28 19:51:47
2869516 onlinearticlesasia.com 0 330635 2011-09-28 19:51:49
2869517 shobohat.com 0 187567 2011-09-28 19:51:53
2869518 barnettcapital.com 0 No Rank 2011-09-28 19:51:54
2869519 lviv.expres.ua 0 143356 2011-09-28 19:51:54
2869520 shirtswiz.com 0 No Rank 2011-09-28 19:52:13
2869521 www5.881903.com 0 25463 2011-09-28 19:52:15
2869522 shirathayam.org 0 10212166 2011-09-28 19:52:15
2869523 vvsucces.com 0 No Rank 2011-09-28 19:52:17
2869524 apps.881903.com 0 25463 2011-09-28 19:52:18
2869525 shinedental.ca 0 7523535 2011-09-28 19:52:20
2869526 shine-bright.com 0 6572713 2011-09-28 19:52:22
2869527 shieijyuku.com 0 8611217 2011-09-28 19:52:27
2869528 shergillsauction.com 0 No Rank 2011-09-28 19:52:31
2869529 marilueventos.com.ar 0 No Rank 2011-09-28 19:52:32
2869530 judyarrigotti.com 0 16454467 2011-09-28 19:52:33
2869531 shenoahranch.com 0 No Rank 2011-09-28 19:52:34
2869532 4bac.educdz.com 0 51288 2011-09-28 19:52:36
2869533 sheilareadspalms.com 0 4398114 2011-09-28 19:52:37
2869534 claudioreyes.com 0 8055359 2011-09-28 19:52:38
2869535 sheeplemagazine.com 0 8559680 2011-09-28 19:52:40
2869536 shark-uk.com 0 No Rank 2011-09-28 19:52:45
2869537 sharp-apps.com 0 11583110 2011-09-28 19:52:47
2869538 sharepointscanning.com 0 No Rank 2011-09-28 19:52:49
2869539 homebizwomen.com 0 613343 2011-09-28 19:52:51
2869540 actionavrentals.com 0 23346746 2011-09-28 19:52:54
2869541 shaneproctorpbr.com 0 23175752 2011-09-28 19:52:57
2869542 shanaelyfrase.com 0 11231922 2011-09-28 19:52:58
2869543 shamansdoor.com 0 No Rank 2011-09-28 19:53:11
2869544 shakespearelibraryimages.com 0 No Rank 2011-09-28 19:53:11
2869545 premiumssl.co.uk 0 No Rank 2011-09-28 19:53:12
2869546 burlingtonil.govoffice2.com 0 251877 2011-09-28 19:53:12
2869547 shadmantents.com 0 No Rank 2011-09-28 19:53:16
2869548 shadesofgreeninc.com 0 13960572 2011-09-28 19:53:17
2869549 huellitas.com 0 3613855 2011-09-28 19:53:20
2869550 caddylake.ca 0 No Rank 2011-09-28 19:53:20
2869551 sf2009.fr 0 13509104 2011-09-28 19:53:24
2869552 seyanhh.com 0 6025754 2011-09-28 19:53:26
2869553 stats.dccnet.com 0 1018492 2011-09-28 19:53:26
2869554 tendance-sinnoh.forumactif.com 0 2108 2011-09-28 19:53:28
2869555 fangtan.inhe.net 0 13167 2011-09-28 19:53:30
2869556 sexvideo-kostenlos.de.gg 0 331721 2011-09-28 19:53:31
2869557 sextosol.org 0 21341531 2011-09-28 19:53:31
2869558 sex.tel 0 4943470 2011-09-28 19:53:37
2869559 borzoirescue.org 0 No Rank 2011-09-28 19:53:37
2869560 doggiedoodleshome.com 0 No Rank 2011-09-28 19:53:39
2869561 sewingmachines.ws 0 No Rank 2011-09-28 19:53:43
2869562 sevgigoz.com 0 19132540 2011-09-28 19:53:43
2869563 portalecuador.ec 0 93242 2011-09-28 19:53:48
2869564 jkprintmarket.com 0 No Rank 2011-09-28 19:53:49
2869565 maccw.catholicweb.com 0 185104 2011-09-28 19:53:51
2869566 settlers7.cz 0 No Rank 2011-09-28 19:53:53
2869567 sethjill.info 0 1352571 2011-09-28 19:53:55
2869568 sh-salesguide.de 0 9261966 2011-09-28 19:54:00
2869569 servetrial.com 0 No Rank 2011-09-28 19:54:01
2869570 mercedes-benz-relais.forumsactifs.com 0 41859 2011-09-28 19:54:02
2869571 fcbhomeloans.com 0 3940779 2011-09-28 19:54:08
2869572 barnumsurflessons.com 0 No Rank 2011-09-28 19:54:10
2869573 3rdeyetracking.com 0 No Rank 2011-09-28 19:54:16
2869574 shrekbrowser.com 0 6404412 2011-09-28 19:54:16
2869575 johannesburg.zaidimai.web44.net 0 36785 2011-09-28 19:54:17
2869576 serre-de-jardin-crysland.com 0 11739510 2011-09-28 19:54:19
2869577 servicemastersaints.com 0 No Rank 2011-09-28 19:54:25
2869578 sergiosristorante.com 0 No Rank 2011-09-28 19:54:26
2869579 montgomeryal.com 0 No Rank 2011-09-28 19:54:26
2869580 serendipitypreschool.org 0 No Rank 2011-09-28 19:54:30
2869581 spacsystems.com 0 No Rank 2011-09-28 19:54:33
2869582 openfollowon.org 0 No Rank 2011-09-28 19:54:33
2869583 jndrecords.com 0 No Rank 2011-09-28 19:54:37
2869584 serenelifestyle.com 0 22781382 2011-09-28 19:54:38
2869585 plbbearings.com 0 11118335 2011-09-28 19:54:42
2869586 sequoia-antibes.com 0 4491643 2011-09-28 19:54:45
2869587 bestexamsguide.blogdiario.com 0 16141 2011-09-28 19:54:46
2869588 rcinvestment.com 0 No Rank 2011-09-28 19:54:46
2869589 seragam-kerja.com 0 7116885 2011-09-28 19:54:48
2869590 plotnikov.biz 0 5086825 2011-09-28 19:54:49
2869591 myfabuloussmile.com 0 No Rank 2011-09-28 19:54:52
2869592 sequence01.com 0 No Rank 2011-09-28 19:54:52
2869593 books.educdz.com 0 51288 2011-09-28 19:54:53
2869594 seoulonwheels.com 0 4502274 2011-09-28 19:54:54
2869595 aboutsurveys.com 0 4519819 2011-09-28 19:54:56
2869596 dentalmall.com 0 2512019 2011-09-28 19:54:56
2869597 thebuffalos.nl 0 No Rank 2011-09-28 19:54:59
2869598 sensoryrain.com 0 No Rank 2011-09-28 19:55:00
2869599 cycletreks.com 0 9164107 2011-09-28 19:55:03
2869600 fracchia.org 0 No Rank 2011-09-28 19:55:04
2869601 senpai.info 0 No Rank 2011-09-28 19:55:07
2869602 bestfencecompany.com 0 No Rank 2011-09-28 19:55:07
2869603 store.mp3car.com 0 42691 2011-09-28 19:55:10
2869604 senjka.com 0 No Rank 2011-09-28 19:55:12
2869605 www4.hardocp.com 0 21698 2011-09-28 19:55:13
2869606 fractal.fm 0 No Rank 2011-09-28 19:55:14
2869607 islam.educdz.com 0 51288 2011-09-28 19:55:19
2869608 senatorstevemorris.com 0 No Rank 2011-09-28 19:55:20
2869609 dreamisrealweekend.com 0 No Rank 2011-09-28 19:55:20
2869610 treville.yperochi.com 0 1346843 2011-09-28 19:55:22
2869611 framesbymax.com 0 6236242 2011-09-28 19:55:23
2869612 cctv-division.com 0 No Rank 2011-09-28 19:55:26
2869613 francky.af1.9online.fr 0 1585687 2011-09-28 19:55:26
2869614 bigcreeklakes.com 0 No Rank 2011-09-28 19:55:29
2869615 hiballcrane.com 0 No Rank 2011-09-28 19:55:31
2869616 npoconsult.de 0 9239502 2011-09-28 19:55:31
2869617 senanque.net 0 10652573 2011-09-28 19:55:31
2869618 dedal-copy.com 0 10780774 2011-09-28 19:55:35
2869619 frank-kappa.com 0 No Rank 2011-09-28 19:55:35
2869620 ahappynewyear.com 0 No Rank 2011-09-28 19:55:36
2869621 dsl-beantragen.de 0 24675467 2011-09-28 19:55:38
2869622 frankmoffitt.com 0 No Rank 2011-09-28 19:55:38
2869623 buycheapraloxifene.com 0 No Rank 2011-09-28 19:55:42
2869624 freddiestransmission.com 0 No Rank 2011-09-28 19:55:42
2869625 france-emplois.fr 0 No Rank 2011-09-28 19:55:43
2869626 barrierangelucci.co.za 0 15979653 2011-09-28 19:55:45
2869627 bestsunglassessale2011.tk 0 No Rank 2011-09-28 19:55:48
2869628 sellyourhousefastinfo.com 0 No Rank 2011-09-28 19:55:51
2869629 barronrepartners.com 0 No Rank 2011-09-28 19:55:52
2869630 sellyourcartous.com 0 No Rank 2011-09-28 19:55:54
2869631 sellstateexpertrealty.com 0 No Rank 2011-09-28 19:55:57
2869632 halloweenlights.buyqm.com 0 1553568 2011-09-28 19:55:59
2869633 ecommerce-cpa.com 0 5082489 2011-09-28 19:56:04
2869634 selectosrecuerdos.com 0 No Rank 2011-09-28 19:56:06
2869635 wendymichellesanders.com 0 17306042 2011-09-28 19:56:07
2869636 baabar.co.uk 0 4394398 2011-09-28 19:56:09
2869637 dainmma.insanejournal.com 0 5024 2011-09-28 19:56:09
2869638 mamaangelinas.com 0 11057609 2011-09-28 19:56:10
2869639 sekacz.info 0 No Rank 2011-09-28 19:56:12
2869640 sekantiszingsnis.puslapiai.lt 0 97898 2011-09-28 19:56:13
2869641 e-portalslubny.pl 0 4559718 2011-09-28 19:56:18
2869642 segurosvehiculos.org 0 No Rank 2011-09-28 19:56:21
2869643 babilonia61.com 0 2075685 2011-09-28 19:56:23
2869644 descargas.femp.es 0 1205355 2011-09-28 19:56:23
2869645 seflaw.net 0 19752915 2011-09-28 19:56:23
2869646 tourdeturtles.org 0 1586565 2011-09-28 19:56:27
2869647 frederick41.de 0 345245 2011-09-28 19:56:27
2869648 fredriklewander.se 0 No Rank 2011-09-28 19:56:31
2869649 seeling.org 0 No Rank 2011-09-28 19:56:34
2869650 photos.mmcq.co.uk 0 4253819 2011-09-28 19:56:35
2869651 giantbanana.co.uk 0 No Rank 2011-09-28 19:56:38
2869652 seducegirl.org 0 No Rank 2011-09-28 19:56:39
2869653 sedgwickfarm.org 0 No Rank 2011-09-28 19:56:44
2869654 sedonahope.com 0 14758281 2011-09-28 19:56:46
2869655 baby-gift-basket.net 0 No Rank 2011-09-28 19:56:48
2869656 backlinkindex.blogspot.com 0 No Rank 2011-09-28 19:56:51
2869657 biggerboat-filmquiz.co.uk 0 7244337 2011-09-28 19:56:51
2869658 sedaliaproperties.com 0 No Rank 2011-09-28 19:56:53
2869659 shain.yperochi.com 0 1346843 2011-09-28 19:56:53
2869660 fredywijaya.com 0 4126863 2011-09-28 19:56:56
2869661 divorceline.org 0 1325919 2011-09-28 19:56:59
2869662 free-download-softwares.com 0 2311806 2011-09-28 19:56:59
2869663 hrtechinc.com 0 24216053 2011-09-28 19:57:00
2869664 free-pcgames.net 0 3450873 2011-09-28 19:57:02
2869665 pages.yperochi.com 0 1346843 2011-09-28 19:57:04
2869666 freecast.pl 0 1337333 2011-09-28 19:57:06
2869667 danielleamorim.tripod.com 0 659 2011-09-28 19:57:11
2869668 freedom-within.com 0 No Rank 2011-09-28 19:57:11
2869669 ubgamers.com 0 No Rank 2011-09-28 19:57:12
2869670 freeclassifiedads.us 0 929125 2011-09-28 19:57:12
2869671 angsanalaguna.com 0 No Rank 2011-09-28 19:57:18
2869672 porlainclusionmercosur.educ.ar 0 29770 2011-09-28 19:57:19
2869673 marniesouza.com 0 No Rank 2011-09-28 19:57:20
2869674 papercutsinvitations.com 0 14510984 2011-09-28 19:57:23
2869675 freegiftsonline4you.com 0 2870223 2011-09-28 19:57:23
2869676 freeheart.net 0 No Rank 2011-09-28 19:57:23
2869677 ximiqi.com 0 1192220 2011-09-28 19:57:25
2869678 freehomeschooladvice.com 0 No Rank 2011-09-28 19:57:29
2869679 candacepierce.com 0 No Rank 2011-09-28 19:57:29
2869680 secsoft.ru 0 No Rank 2011-09-28 19:57:29
2869681 expressionpad.com 0 21609470 2011-09-28 19:57:34
2869682 northstarperformance.com 0 9342027 2011-09-28 19:57:34
2869683 secretwindowfloral.com 0 No Rank 2011-09-28 19:57:35
2869684 secrets2passiveincome.com 0 No Rank 2011-09-28 19:57:37
2869685 trucosycasino.com 0 3453919 2011-09-28 19:57:38
2869686 secretrock.cz 0 No Rank 2011-09-28 19:57:40
2869687 haemmerli-ar20.de 0 7080794 2011-09-28 19:57:41
2869688 secreto-subliminal.com 0 1435337 2011-09-28 19:57:42
2869689 mightylib.biker.xmatch.com 0 2694 2011-09-28 19:57:44
2869690 freelancersindia.com 0 No Rank 2011-09-28 19:57:47
2869691 classicmodelcar.de 0 No Rank 2011-09-28 19:57:50
2869692 freekickonline.com 0 No Rank 2011-09-28 19:57:50
2869693 bloodtesttoday.com 0 No Rank 2011-09-28 19:57:51
2869694 babyballroom.co.uk 0 No Rank 2011-09-28 19:57:55
2869695 sebastianschmitt.de 0 12934068 2011-09-28 19:57:56
2869696 sebaia.com 0 No Rank 2011-09-28 19:57:56
2869697 fanforum.uscho.com 0 247103 2011-09-28 19:57:56
2869698 seattlechinesegarden.org 0 4513151 2011-09-28 19:58:03
2869699 avionicstrends.com 0 24717550 2011-09-28 19:58:03
2869700 seato.org 0 No Rank 2011-09-28 19:58:09
2869701 beche.se 0 No Rank 2011-09-28 19:58:10
2869702 silverlinearts.com 0 5589823 2011-09-28 19:58:12
2869703 seat-koehler.de 0 No Rank 2011-09-28 19:58:12
2869704 didjuknow.net 0 No Rank 2011-09-28 19:58:12
2869705 freemagazinesbymail.org 0 14227315 2011-09-28 19:58:17
2869706 freeonlinecomics.org 0 6254857 2011-09-28 19:58:17
2869707 leslietribolet.com 0 No Rank 2011-09-28 19:58:19
2869708 charliehartzell.com 0 No Rank 2011-09-28 19:58:19
2869709 searchvideos.org 0 18686939 2011-09-28 19:58:23
2869710 searchone.org 0 16481356 2011-09-28 19:58:27
2869711 howtomakeabuck.com 0 No Rank 2011-09-28 19:58:30
2869712 searchandsearch.com 0 14186884 2011-09-28 19:58:30
2869713 sdcoinshooters.com 0 11501253 2011-09-28 19:58:31
2869714 dominicsellsit.com 0 No Rank 2011-09-28 19:58:32
2869715 bacardi-breezer.it 0 15098259 2011-09-28 19:58:34
2869716 freewatertestgta.com 0 No Rank 2011-09-28 19:58:40
2869717 freiherr-vom-stein.de 0 14580504 2011-09-28 19:58:41
2869718 origin1.chumfm.com 0 311550 2011-09-28 19:58:43
2869719 frenchwrapdayspa.com 0 No Rank 2011-09-28 19:58:46
2869720 bbs.arclive.com.cn 0 449176 2011-09-28 19:58:50
2869721 freshsalonsarasota.com 0 11463599 2011-09-28 19:58:50
2869722 fridayharborirish.com 0 21741794 2011-09-28 19:58:52
2869723 edtweb.ccsdk12.org 0 3151537 2011-09-28 19:58:53
2869724 becomeabetterbusinesscoach.com 0 No Rank 2011-09-28 19:58:55
2869725 seaportmeat.com 0 19660301 2011-09-28 19:58:57
2869726 speciesbanking.com 0 11406277 2011-09-28 19:59:02
2869727 seagaterentals.com 0 8450554 2011-09-28 19:59:02
2869728 avsecaruba.com 0 No Rank 2011-09-28 19:59:06
2869729 search-commando.com 0 3180580 2011-09-28 19:59:06
2869730 seadagang.com 0 26757898 2011-09-28 19:59:13
2869731 fridenites.com 0 21717948 2011-09-28 19:59:13
2869732 ugyfelkapu.chat.hu 0 93308 2011-09-28 19:59:15
2869733 ahlesonnat.hajj.ir 0 109034 2011-09-28 19:59:19
2869734 catchtheenergy.org 0 No Rank 2011-09-28 19:59:22
2869735 friendlycleaninginc.com 0 No Rank 2011-09-28 19:59:22
2869736 binmina.xanga.com 0 2752 2011-09-28 19:59:28
2869737 sdhomeless.org 0 17494618 2011-09-28 19:59:29
2869738 scythe2011.com 0 No Rank 2011-09-28 19:59:29
2869739 friendsofwilbur.com 0 17836396 2011-09-28 19:59:34
2869740 mcgruffbrowser.com 0 No Rank 2011-09-28 19:59:36
2869741 scroungyweasel.com 0 No Rank 2011-09-28 19:59:36
2869742 screensavertools.com 0 No Rank 2011-09-28 19:59:39
2869743 search.dos.uci.edu 0 7595 2011-09-28 19:59:39
2869744 scpoolsandlandscapes.com 0 17436808 2011-09-28 19:59:45
2869745 jonafila.atspace.com 0 19646 2011-09-28 19:59:46
2869746 tokobungasamarindaflorist.webnode.com 0 2992 2011-09-28 19:59:49
2869747 scottsdaleconsignmentandestate.com 0 No Rank 2011-09-28 19:59:50
2869748 whowhere.yperochi.com 0 1346843 2011-09-28 19:59:54
2869749 frm.kijk.nl 0 1050811 2011-09-28 19:59:58
2869750 tradeleftovers.com 0 16944344 2011-09-28 20:00:04
2869751 scottmitchellkelly.com 0 No Rank 2011-09-28 20:00:05
2869752 nazarsanji.hajj.ir 0 109034 2011-09-28 20:00:08
2869753 scottmcrae.net 0 No Rank 2011-09-28 20:00:13
2869754 scrappingonthespot.com 0 No Rank 2011-09-28 20:00:14
2869755 challengeaspen.org 0 3095294 2011-09-28 20:00:17
2869756 price.zaidimai.web44.net 0 36785 2011-09-28 20:00:17
2869757 mb.yperochi.com 0 1346843 2011-09-28 20:00:18
2869758 scorpion.ua 0 6952785 2011-09-28 20:00:20
2869759 hydromaxenergy.com 0 No Rank 2011-09-28 20:00:21
2869760 scorepage.com 0 6453844 2011-09-28 20:00:21
2869761 aspan.org 0 7828378 2011-09-28 20:00:21
2869762 rsivideofied.co.uk 0 No Rank 2011-09-28 20:00:24
2869763 scierie-mariobottarel.com 0 No Rank 2011-09-28 20:00:27
2869764 atmcontractors.co.uk 0 No Rank 2011-09-28 20:00:28
2869765 froren.info 0 6712911 2011-09-28 20:00:31
2869766 bigleaguescrew.com 0 729567 2011-09-28 20:00:32
2869767 avportal.avinc.com 0 396556 2011-09-28 20:00:33
2869768 frostedonline.net 0 No Rank 2011-09-28 20:00:38
2869769 schusterclifford.com 0 No Rank 2011-09-28 20:00:39
2869770 takarakuji.yperochi.com 0 1346843 2011-09-28 20:00:41
2869771 attila-products.de 0 19022936 2011-09-28 20:00:42
2869772 schuh.tel 0 15973101 2011-09-28 20:00:45
2869773 schreib.org 0 19699012 2011-09-28 20:00:47
2869774 attorneyutah.net 0 No Rank 2011-09-28 20:00:47
2869775 newcp.cinetong.com 0 10460472 2011-09-28 20:00:52
2869776 schrack.eu 0 No Rank 2011-09-28 20:00:52
2869777 school7-miass.ru 0 No Rank 2011-09-28 20:00:55
2869778 digital-daily.info 0 No Rank 2011-09-28 20:00:58
2869779 weather.news.zaidimai.web44.net 0 36785 2011-09-28 20:01:02
2869780 encorefilms.com.sg 0 No Rank 2011-09-28 20:01:02
2869781 scheuerhalterhof.de.vu 0 No Rank 2011-09-28 20:01:05
2869782 schindler3300na.com 0 12622152 2011-09-28 20:01:07
2869783 500fifthavenue.com 0 No Rank 2011-09-28 20:01:09
2869784 scheitelsmusic.com 0 13186306 2011-09-28 20:01:12
2869785 mail.tjseagull.com 0 8192884 2011-09-28 20:01:14
2869786 frozenliveshellfish.com 0 No Rank 2011-09-28 20:01:16
2869787 loa2.com 0 No Rank 2011-09-28 20:01:17
2869788 purepredatorcalls.com 0 No Rank 2011-09-28 20:01:18
2869789 scenichillsraceway.com 0 22597594 2011-09-28 20:01:19
2869790 onestopmp3shop.com 0 16759225 2011-09-28 20:01:24
2869791 sccp.ca 0 No Rank 2011-09-28 20:01:24
2869792 jdpowersurveys.com 0 1113865 2011-09-28 20:01:29
2869793 scatshows.com 0 No Rank 2011-09-28 20:01:31
2869794 scary-games.org 0 10692859 2011-09-28 20:01:33
2869795 estercommunity.org 0 No Rank 2011-09-28 20:01:34
2869796 scappoosefarmermarket.com 0 No Rank 2011-09-28 20:01:39
2869797 scan-pdf.com 0 No Rank 2011-09-28 20:01:44
2869798 sc-siebnen.ch 0 No Rank 2011-09-28 20:01:48
2869799 dostavkavsamare.ru 0 No Rank 2011-09-28 20:01:49
2869800 sbrennanip.com 0 No Rank 2011-09-28 20:01:49
2869801 attn-2-detail.com 0 No Rank 2011-09-28 20:01:56
2869802 sbbt-architecture.com 0 No Rank 2011-09-28 20:01:57
2869803 sbe.hu 0 5955765 2011-09-28 20:01:57
2869804 fruitspelen.com 0 No Rank 2011-09-28 20:02:04
2869805 sba-loan-requirements.org 0 No Rank 2011-09-28 20:02:05
2869806 real-estate-dr.com 0 No Rank 2011-09-28 20:02:05
2869807 jamiechase120.deviantart.com 0 130 2011-09-28 20:02:10
2869808 sayginlarmakina.com.tr 0 No Rank 2011-09-28 20:02:11
2869809 old.cheeburger.com 0 635596 2011-09-28 20:02:12
2869810 fryzurysylwestrowe.mblog.pl 0 182361 2011-09-28 20:02:14
2869811 sawpalmettoproducts.com 0 9354398 2011-09-28 20:02:15
2869812 bookbasesearch.com 0 No Rank 2011-09-28 20:02:18
2869813 eagleaerospace.com 0 No Rank 2011-09-28 20:02:21
2869814 fsbiran.com 0 15324169 2011-09-28 20:02:26
2869815 savourelgin.ca 0 No Rank 2011-09-28 20:02:27
2869816 ftgparts.com 0 1906902 2011-09-28 20:02:33
2869817 savethelastdancemusic.com 0 26827728 2011-09-28 20:02:35
2869818 saverightnow.net 0 No Rank 2011-09-28 20:02:40
2869819 publikacje.edux.pl 0 292296 2011-09-28 20:02:42
2869820 pedi.espoch.edu.ec 0 504413 2011-09-28 20:02:43
2869821 saudi-healthcare.com 0 7107032 2011-09-28 20:02:46
2869822 attractive.co.jp 0 2007112 2011-09-28 20:02:48
2869823 saudi-arabia.internationalschool.tel 0 11777585 2011-09-28 20:02:48
2869824 parks.elkgrove.org 0 15400735 2011-09-28 20:02:49
2869825 gatewaygardens.com 0 7720960 2011-09-28 20:02:51
2869826 satogaeri.net 0 2284850 2011-09-28 20:02:54
2869827 the-golden-chariot.com 0 1068100 2011-09-28 20:02:55
2869828 peter.honeyman.org 0 3366 2011-09-28 20:02:55
2869829 ftkustomz.com 0 No Rank 2011-09-28 20:02:57
2869830 satisnacktion.com 0 19603400 2011-09-28 20:03:04
2869831 ads.easyinfo.co.za 0 150519 2011-09-28 20:03:04
2869832 ftyps.com 0 No Rank 2011-09-28 20:03:22
2869833 fuego-ministries.com 0 No Rank 2011-09-28 20:03:25
2869834 joannakrupafoto.pl 0 No Rank 2011-09-28 20:03:29
2869835 bountifulearth.com 0 No Rank 2011-09-28 20:03:39
2869836 satellitedirectdownload.com 0 No Rank 2011-09-28 20:03:47
2869837 saskatoonrentapartment.com 0 No Rank 2011-09-28 20:03:47
2869838 wmginteractive.com 0 No Rank 2011-09-28 20:03:56
2869839 fumcah.com 0 No Rank 2011-09-28 20:04:02
2869840 sasas.jp 0 No Rank 2011-09-28 20:04:06
2869841 nameblock.overcafe.com 0 761278 2011-09-28 20:04:09
2869842 getbalanceview.com 0 No Rank 2011-09-28 20:04:13
2869843 saruel.pl 0 18338541 2011-09-28 20:04:13
2869844 murdockchevroletbuick.com 0 17125520 2011-09-28 20:04:17
2869845 sareedesigns.com 0 1900367 2011-09-28 20:04:21
2869846 homemortgagestoronto.ca 0 4832743 2011-09-28 20:04:22
2869847 fun.ly 0 82740 2011-09-28 20:04:23
2869848 soundsbadmusic.net 0 No Rank 2011-09-28 20:04:25
2869849 funbin.info 0 2509194 2011-09-28 20:04:29
2869850 staffordcentre.com 0 3881525 2011-09-28 20:04:30
2869851 funbroadcasts.com 0 No Rank 2011-09-28 20:04:31
2869852 funcompanydfw.com 0 No Rank 2011-09-28 20:04:36
2869853 direct.birkman.com 0 803116 2011-09-28 20:04:36
2869854 functions-etc.com 0 No Rank 2011-09-28 20:04:37
2869855 funnygirlphotography.com 0 No Rank 2011-09-28 20:04:43
2869856 leathernecksmc.com 0 19751698 2011-09-28 20:04:44
2869857 fundacjarybnik.pl 0 12272490 2011-09-28 20:04:45
2869858 iphoneunlocks.nl 0 No Rank 2011-09-28 20:04:48
2869859 modified-elite.com 0 15723054 2011-09-28 20:04:49
2869860 fusionheadquarters.com 0 2200554 2011-09-28 20:04:52
2869861 funsportinc.com 0 6929375 2011-09-28 20:04:55
2869862 evan-moor.com 0 379445 2011-09-28 20:04:57
2869863 futurescriptssecure.com 0 No Rank 2011-09-28 20:04:57
2869864 fwapto.org 0 No Rank 2011-09-28 20:05:02
2869865 fyrnicesamoyeds.com 0 25264684 2011-09-28 20:05:02
2869866 forums.sextv.us 0 No Rank 2011-09-28 20:05:09
2869867 g-3d.com 0 No Rank 2011-09-28 20:05:10
2869868 fz-aefi.com 0 9257245 2011-09-28 20:05:16
2869869 g-c.se 0 16790244 2011-09-28 20:05:21
2869870 class.eilati.co.il 0 4701977 2011-09-28 20:05:21
2869871 g2day.net 0 26818003 2011-09-28 20:05:22
2869872 cityofgillette.net 0 No Rank 2011-09-28 20:05:24
2869873 bollynewsupdates.blogspot.com 0 20713629 2011-09-28 20:05:25
2869874 g3graphics.net 0 20400097 2011-09-28 20:05:29
2869875 panoramadiario.net 0 No Rank 2011-09-28 20:05:33
2869876 g4ranch.com 0 No Rank 2011-09-28 20:05:34
2869877 gabassfed.org 0 No Rank 2011-09-28 20:05:35
2869878 jerseyshoregossip.com 0 No Rank 2011-09-28 20:05:38
2869879 gabrielpinto.com.ar 0 No Rank 2011-09-28 20:05:45
2869880 cerkiew.wlodawa.pl 0 2299951 2011-09-28 20:05:47
2869881 7dye.com 0 8014811 2011-09-28 20:05:47
2869882 gabinetedepsicologia.com 0 1859090 2011-09-28 20:05:48
2869883 tromaktiko.in 0 4504114 2011-09-28 20:05:48
2869884 gadenngari.org 0 No Rank 2011-09-28 20:05:52
2869885 gadget-geek.net 0 3017439 2011-09-28 20:05:53
2869886 gadgetboost.com 0 4799168 2011-09-28 20:05:57
2869887 sarahtanzer.com 0 No Rank 2011-09-28 20:06:03
2869888 services.cecil.edu 0 1309427 2011-09-28 20:06:03
2869889 partner.amsurg.com 0 3779766 2011-09-28 20:06:08
2869890 sarahho.net 0 10079358 2011-09-28 20:06:08
2869891 sarahgracewilliams.com 0 No Rank 2011-09-28 20:06:10
2869892 viajescora.com 0 10460049 2011-09-28 20:06:21
2869893 gainesfurnitureoutlet.com 0 4088533 2011-09-28 20:06:21
2869894 tenresolutions.com 0 16749326 2011-09-28 20:06:26
2869895 saputara.co.in 0 3819526 2011-09-28 20:06:29
2869896 sapphiremoon.biz 0 No Rank 2011-09-28 20:06:34
2869897 ccoo19.trimedia.es 0 1075613 2011-09-28 20:06:34
2869898 attycomplaintserv.com 0 No Rank 2011-09-28 20:06:36
2869899 galaxy-lax.com 0 No Rank 2011-09-28 20:06:40
2869900 weareoil.com 0 7205986 2011-09-28 20:06:42
2869901 ecocoffeestore.com 0 17081625 2011-09-28 20:06:43
2869902 abasg.siteturn.com 0 459434 2011-09-28 20:06:43
2869903 saops.si 0 No Rank 2011-09-28 20:06:48
2869904 sarahdoucette.ca 0 No Rank 2011-09-28 20:06:49
2869905 employeradviser.ca 0 6684637 2011-09-28 20:06:58
2869906 anarnarn.blog.com 0 1085 2011-09-28 20:06:59
2869907 santperedoctavia.org 0 No Rank 2011-09-28 20:06:59
2869908 sanres.com 0 No Rank 2011-09-28 20:07:00
2869909 sangonoizumi.jp 0 No Rank 2011-09-28 20:07:06
2869910 sanjosejewelers.org 0 No Rank 2011-09-28 20:07:08
2869911 de-articulator.com 0 18615615 2011-09-28 20:07:10
2869912 sanfranciscomusicbox.com 0 954854 2011-09-28 20:07:15
2869913 sangaminfotech.net 0 No Rank 2011-09-28 20:07:16
2869914 sandyspringscarwash.com 0 16149490 2011-09-28 20:07:20
2869915 mathuraviswanathan.com 0 No Rank 2011-09-28 20:07:22
2869916 pdfon.us 0 No Rank 2011-09-28 20:07:23
2869917 sandragonzalezdance.com 0 No Rank 2011-09-28 20:07:27
2869918 sandragracehealthcareteam.com 0 No Rank 2011-09-28 20:07:30
2869919 newproperty.com.sg 0 No Rank 2011-09-28 20:07:31
2869920 attycastaneda.com 0 6654803 2011-09-28 20:07:32
2869921 sandpipercircle.com 0 No Rank 2011-09-28 20:07:32
2869922 sandpearlresidences.com 0 18691495 2011-09-28 20:07:36
2869923 galeriesamuellallouz.com 0 9883197 2011-09-28 20:07:42
2869924 sandiegobusinesstaxexpert.com 0 No Rank 2011-09-28 20:07:44
2869925 debiteurenzeker.nl 0 9640439 2011-09-28 20:07:44
2869926 niceits.cp.cx 0 194305 2011-09-28 20:07:46
2869927 starbootysalon.com 0 No Rank 2011-09-28 20:07:48
2869928 sanatateata.myforum.ro 0 103684 2011-09-28 20:07:50
2869929 attysdwillett.com 0 No Rank 2011-09-28 20:07:53
2869930 sanangelochristianacademy.org 0 No Rank 2011-09-28 20:07:53
2869931 cuerefinishing.com 0 No Rank 2011-09-28 20:07:55
2869932 samoa.as 0 10610888 2011-09-28 20:07:58
2869933 samosvalmarket.ru 0 No Rank 2011-09-28 20:08:01
2869934 sammonfilmaajat.com 0 No Rank 2011-09-28 20:08:05
2869935 samdavenport.com 0 No Rank 2011-09-28 20:08:10
2869936 wsm.echungdahm.com 0 826563 2011-09-28 20:08:12
2869937 saman-mati.ru 0 No Rank 2011-09-28 20:08:15
2869938 atv-service-manuals.com 0 No Rank 2011-09-28 20:08:15
2869939 salvage.pl 0 23198232 2011-09-28 20:08:18
2869940 grandnournours.com 0 No Rank 2011-09-28 20:08:18
2869941 springteahouse.com 0 No Rank 2011-09-28 20:08:21
2869942 salsatop100.nl 0 No Rank 2011-09-28 20:08:21
2869943 salon07.com 0 No Rank 2011-09-28 20:08:25
2869944 sallysrockinghorses.com 0 24455741 2011-09-28 20:08:27
2869945 recette.e-sante.fr 0 22716 2011-09-28 20:08:29
2869946 onlystickgames.com 0 2591006 2011-09-28 20:08:33
2869947 ibushire.co.uk 0 No Rank 2011-09-28 20:08:34
2869948 salentocasavacanze.net 0 No Rank 2011-09-28 20:08:34
2869949 salemleader.com 0 4807169 2011-09-28 20:08:36
2869950 annart.vasilik.com 0 No Rank 2011-09-28 20:08:41
2869951 sakersex.nu 0 No Rank 2011-09-28 20:08:42
2869952 sakarya.gov.tr 0 4662524 2011-09-28 20:08:43
2869953 atv4ever.com 0 No Rank 2011-09-28 20:08:45
2869954 saiddancecompany.com 0 20893700 2011-09-28 20:08:51
2869955 sahbi.net 0 27930123 2011-09-28 20:08:52
2869956 ftv.core-server.be 0 No Rank 2011-09-28 20:08:53
2869957 sahara-language-school.egypt.internationalschool.tel 0 11777585 2011-09-28 20:08:58
2869958 cowboyheritage.org 0 No Rank 2011-09-28 20:08:58
2869959 sageceremony.com 0 No Rank 2011-09-28 20:09:04
2869960 safreepregnancytest.com 0 No Rank 2011-09-28 20:09:09
2869961 safetysolutions-llc.com 0 7038126 2011-09-28 20:09:11
2869962 safetyproductsmarketplace.com 0 No Rank 2011-09-28 20:09:17
2869963 safetycast.org 0 No Rank 2011-09-28 20:09:17
2869964 search.eeeuser.com 0 36522 2011-09-28 20:09:18
2869965 safecrackers.net 0 20012879 2011-09-28 20:09:25
2869966 safecomweb.com 0 22398837 2011-09-28 20:09:27
2869967 saddlecreekapartments.com 0 15889222 2011-09-28 20:09:32
2869968 saculturaltours.com 0 14130302 2011-09-28 20:09:38
2869969 screen4you.ru 0 No Rank 2011-09-28 20:09:40
2869970 sacredplay.info 0 18280523 2011-09-28 20:09:42
2869971 sacredharpiowa.org 0 No Rank 2011-09-28 20:09:43
2869972 careers.baxter.com 0 183536 2011-09-28 20:09:47
2869973 sacredcovecounseling.com 0 No Rank 2011-09-28 20:09:48
2869974 sabodblog.com 0 3254182 2011-09-28 20:09:55
2869975 sabdesi.net 0 867039 2011-09-28 20:09:56
2869976 orchestergraben.de 0 No Rank 2011-09-28 20:09:56
2869977 happentolikeny.org 0 23759980 2011-09-28 20:10:01
2869978 saarheim.de 0 2459977 2011-09-28 20:10:01
2869979 s1muaythai.com 0 No Rank 2011-09-28 20:10:02
2869980 atwatersyndicate.com 0 No Rank 2011-09-28 20:10:04
2869981 apps.ccicompany.us 0 2018600 2011-09-28 20:10:09
2869982 rz2games.com 0 No Rank 2011-09-28 20:10:10
2869983 s-ga.com 0 16986031 2011-09-28 20:10:13
2869984 ccoo11.trimedia.es 0 1075613 2011-09-28 20:10:16
2869985 ryanmedical.com 0 No Rank 2011-09-28 20:10:18
2869986 ryanclaytor.com 0 No Rank 2011-09-28 20:10:22
2869987 rwmsinc.com 0 No Rank 2011-09-28 20:10:23
2869988 rvdealersinnewmexico.com 0 No Rank 2011-09-28 20:10:34
2869989 carnivalpapers.com 0 No Rank 2011-09-28 20:10:34
2869990 paidtolearn.com.au 0 499226 2011-09-28 20:10:39
2869991 rva-renevonah.ch 0 No Rank 2011-09-28 20:10:45
2869992 atwaterfalconsqbc.com 0 No Rank 2011-09-28 20:10:53
2869993 ruukyla.ee 0 No Rank 2011-09-28 20:10:53
2869994 flashturbation.org 0 No Rank 2011-09-28 20:10:56
2869995 rvnd5510.com 0 20074782 2011-09-28 20:10:57
2869996 ruthsnutrition.com 0 12084934 2011-09-28 20:10:59
2869997 osirislibros.es 0 No Rank 2011-09-28 20:11:03
2869998 russwooddecorating.com 0 No Rank 2011-09-28 20:11:03
2869999 russrace.com 0 No Rank 2011-09-28 20:11:08